Weather in King Khalid International Airport

Saudi Arabia     24°57′21″N   46°42′28″E
temp.,
°C
wind,
m/s
gust,
m/s
humid.,
%
clouds,
%
prec.,
mm/h
press.,
hPa
HPBL,
m
24 july, sat
sat2400:00+36ne58145 0.0 999110
03:00+34ese221992 0.0 99911
06:00+33n33220 0.0 100019
09:00+39ne35130 0.0 1000759
12:00+43ne6590 0.0 9993523
15:00+44ne7580 0.0 9984857
18:00+42ne6790 0.0 998681
21:00+38ene57130 0.0 100083
25 july, sun
sun2500:00+36e44140 0.0 100029
03:00+33ese22190 0.0 99911
06:00+33sw11220 0.0 100111
09:00+39ne23145 0.0 1002698
12:00+43ne87911 0.0 10003048
15:00+44nne9885 0.0 9993547
18:00+42ne7995 0.0 999753
21:00+38ene47145 0.0 100090
26 july, mon
mon2600:00+36ene33155 0.0 100016
03:00+35nnw44155 0.0 100021
06:00+33n33165 0.0 100127
09:00+40nne7121276 0.0 10011325
12:00+44ne8990 0.0 9991986
15:00+45ne79759 0.0 9974356
18:00+43ne688100 0.0 997269
21:00+39ne51111100 0.0 999158
27 july, tue
tue2700:00+36ne441421 0.0 99942
03:00+34ne45234 0.0 99956
06:00+33ne462726 0.0 100072
09:00+40ne45100 0.0 999704
12:00+44nne6860 0.0 9982977
15:00+45nne61163 0.0 9954894
18:00+43ne9127100 0.0 995642
21:00+40ne5611100 0.0 99768
28 july, wed
wed2800:00+37ne571253 0.0 99773
03:00+34nne33135 0.0 99619
06:00+33nnw22145 0.0 99711
09:00+40nnw6695 0.0 998813
12:00+44n810664 0.0 9963419
15:00+46nne8965 0.0 9945391
18:00+44nne79871 0.0 994318
21:00+39ne59105 0.0 997124